Weather in Novaya Syda

Russia / Krasnoyarsk Krai     54°23′41″N   91°25′17″E
temp.,
°C
wind,
m/s
gust,
m/s
humid.,
%
clouds,
%
prec.,
mm/h
press.,
hPa
HPBL,
m
7 may, fri
fri701:00+11e2268100 0.0 100816
04:00+10e2273100 0.0 100727
07:00+11ese2374100 0.0 100698
10:00+15sse3662100 0.0 1006433
13:00+20ssw4851100 0.1 1004672
16:00+19wnw61149100 0.4 10051239
19:00+16wnw8124999 0.4 1008949
22:00+12wnw51258100 0.0 1012587
8 may, sat
sat801:00+8w22638 0.0 101541
04:00+8sw226693 0.0 101632
07:00+9wsw266175 0.0 1017303
10:00+12wnw584862 0.0 10171942
13:00+15w693462 0.0 10152314
16:00+16wnw7103798 0.0 10142286
19:00+14w61247100 0.0 10141607
22:00+11w41171100 0.8 1014849
9 may, sun
sun901:00+9w41080100 1.7 1014442
04:00+8wnw4118730 1.1 1014507
07:00+7nnw5981100 1.3 1015858
10:00+7nw8135822 0.0 10171199
13:00+10nw794020 0.0 10171808
16:00+11nnw794078 0.0 10182106
19:00+8n57525 0.0 10201374
22:00+5nne25730 0.0 1022119
10 may, mon
mon1001:00+3nne118033 0.0 102312
04:00+2ne11815 0.0 102211
07:00+4ene22705 0.0 1021180
10:00+8ese345574 0.0 1019935
13:00+12ese34414 0.0 10161444
16:00+14ese34345 0.0 10131728
19:00+12ne3545100 0.0 1012883
22:00+8ne51063100 0.0 1011314
11 may, tue
tue1101:00+6nne247398 0.0 1010115
04:00+4n2385100 0.0 100970
07:00+6nnw247597 0.0 1009292
10:00+10nnw23511 0.0 1009956
13:00+14n124084 0.0 10081779
16:00+15ene233896 0.0 10091871
19:00+13ne575375 0.4 10111234
22:00+10nne5106599 0.1 1013530